Alachua FAWN current weather conditions

sailwx.info

Wind from 012 at 1 knots

Air temperature 18.0° C
Dewpoint 1.6° C

Last reported at 2020-Jan-28 22:00 UTC.
Time now 2020-Jan-28 23:02 UTC

Location: N 29°48' W 082°25'.
View on Google Maps.

See reports from other nearby stations

  
Tides and Currents Weather Stations Pressure Air Temp Water Temp Dewpoint Dewpoint Depression Visibility Wind Speed Wind Dir Waves Ship Positions
date/time (UTC)wind fromknots sea level pressurealtimeterstation pressurevisibilityair tempwater tempwave heightnotes
2020-Jan-28 22:00 012 1 18.0
2020-Jan-28 21:45 010 1 18.1
2020-Jan-28 21:30 023 1 18.3
2020-Jan-28 21:15 053 2 18.2
2020-Jan-28 21:00 053 2 18.2
2020-Jan-28 20:45 024 2 18.3
2020-Jan-28 20:30 018 2 18.3
2020-Jan-28 20:15 063 2 18.4
2020-Jan-28 20:00 353 2 18.2
2020-Jan-28 19:45 001 2 18.2
2020-Jan-28 19:30 057 2 18.2
2020-Jan-28 19:15 053 1 17.9
2020-Jan-28 19:00 039 2 17.6
2020-Jan-28 18:45 049 2 17.4
2020-Jan-28 18:30 039 2 17.3
2020-Jan-28 18:15 009 2 17.1
2020-Jan-28 18:00 026 2 16.9
2020-Jan-28 17:45 051 2 16.3
2020-Jan-28 17:30 045 2 16.0
2020-Jan-28 17:15 018 1 16.1
2020-Jan-28 17:00 028 2 15.3
2020-Jan-28 16:45 041 2 15.1
2020-Jan-28 16:30 047 3 14.5
2020-Jan-28 16:15 047 2 14.2
2020-Jan-28 16:00 036 2 13.6
2020-Jan-28 15:45 031 2 13.2
2020-Jan-28 15:30 027 2 13.2
2020-Jan-28 15:15 029 2 12.4
2020-Jan-28 15:00 031 1 11.6
2020-Jan-28 14:45 030 1 11.0
2020-Jan-28 14:30 025 2 10.3
2020-Jan-28 14:15 030 1 9.9
2020-Jan-28 14:00 016 1 9.6
2020-Jan-28 13:45 021 1 8.9
2020-Jan-28 13:30 015 0 8.8
2020-Jan-28 13:15 328 0 7.7
2020-Jan-28 13:00 008 0 7.1
2020-Jan-28 12:45 277 0 6.0
2020-Jan-28 12:30 024 0 6.5
2020-Jan-28 12:15 019 0 6.6
2020-Jan-28 12:00 024 0 6.8
2020-Jan-28 11:45 019 0 7.1
2020-Jan-28 11:30 021 0 7.3
2020-Jan-28 11:15 017 1 7.4
2020-Jan-28 11:00 011 1 7.6
2020-Jan-28 10:45 010 1 7.7
2020-Jan-28 10:30 008 1 7.8
2020-Jan-28 10:15 008 1 7.9
2020-Jan-28 10:00 004 1 7.7
2020-Jan-28 09:45 009 0 7.8
2020-Jan-28 09:30 053 0 7.8
2020-Jan-28 09:15 025 0 7.7
2020-Jan-28 09:00 050 0 7.8
2020-Jan-28 08:45 351 0 8.0
2020-Jan-28 08:30 359 0 7.6
2020-Jan-28 08:15 353 0 6.9
2020-Jan-28 08:00 328 0 6.5
2020-Jan-28 07:45 327 0 6.8
2020-Jan-28 07:30 331 0 7.2
2020-Jan-28 07:15 282 0 7.3
2020-Jan-28 07:00 302 0 7.6
2020-Jan-28 06:45 236 0 7.8
2020-Jan-28 06:30 261 0 8.1
2020-Jan-28 06:15 272 0 8.5
2020-Jan-28 06:00 349 0 8.8
2020-Jan-28 05:45 052 0 8.9
2020-Jan-28 05:30 066 0 9.4
2020-Jan-28 05:15 047 0 10.0
2020-Jan-28 05:00 043 0 10.4
2020-Jan-28 04:45 042 0 10.7
2020-Jan-28 04:30 046 0 11.1
2020-Jan-28 04:15 043 0 11.4
2020-Jan-28 04:00 020 0 11.9
2020-Jan-28 03:45 351 0 12.3
2020-Jan-28 03:30 009 0 12.5
2020-Jan-28 03:15 002 0 12.4
2020-Jan-28 03:00 025 0 12.3
2020-Jan-28 02:45 347 0 12.7
2020-Jan-28 02:30 345 0 12.9
2020-Jan-28 02:15 316 0 13.8
2020-Jan-28 02:00 316 0 14.2
2020-Jan-28 01:45 328 1 14.2
2020-Jan-28 01:30 328 0 13.5
2020-Jan-28 01:15 334 0 13.1
2020-Jan-28 01:00 341 0 13.0
2020-Jan-28 00:45 331 0 13.2
2020-Jan-28 00:30 358 0 13.6
2020-Jan-28 00:15 058 0 13.9
2020-Jan-28 00:00 308 0 14.3
2020-Jan-27 23:45 220 0 14.7
2020-Jan-27 23:30 215 0 15.2
2020-Jan-27 23:15 309 0 15.8
2020-Jan-27 23:00 269 0 16.2
2020-Jan-27 22:45 281 1 16.6
2020-Jan-27 22:30 270 1 16.8
2020-Jan-27 22:15 282 1 17.0
2020-Jan-27 22:00 286 1 17.0
2020-Jan-27 21:45 268 1 17.1
2020-Jan-27 21:30 286 1 17.2
2020-Jan-27 21:15 303 1 17.3
2020-Jan-27 21:00 294 1 17.4
2020-Jan-27 20:45 283 1 17.5
2020-Jan-27 20:30 240 1 17.7
2020-Jan-27 20:15 290 1 17.6
2020-Jan-27 20:00 265 1 17.6
2020-Jan-27 19:45 254 1 17.6
2020-Jan-27 19:30 267 1 17.8
2020-Jan-27 19:15 261 1 17.6
2020-Jan-27 19:00 275 2 17.6
2020-Jan-27 18:45 267 2 17.5
2020-Jan-27 18:30 270 2 17.9
2020-Jan-27 18:15 267 1 18.4
2020-Jan-27 18:00 247 1 18.5
2020-Jan-27 17:45 216 1 17.6
2020-Jan-27 17:30 207 1 17.4
2020-Jan-27 17:15 195 2 17.1
2020-Jan-27 17:00 175 2 16.9
2020-Jan-27 16:45 158 1 16.4
2020-Jan-27 16:30 134 1 16.0
2020-Jan-27 16:15 113 1 15.0
2020-Jan-27 16:00 108 1 14.5
2020-Jan-27 15:45 085 1 14.0
2020-Jan-27 15:30 075 1 13.6
2020-Jan-27 15:15 099 1 13.3
2020-Jan-27 15:00 100 1 12.9
2020-Jan-27 14:45 106 1 12.6
2020-Jan-27 14:30 104 1 12.3
2020-Jan-27 14:15 073 1 12.0
2020-Jan-27 14:00 063 1 11.5
2020-Jan-27 13:45 061 1 11.3
2020-Jan-27 13:30 079 1 11.1
2020-Jan-27 13:15 077 1 11.0
2020-Jan-27 13:00 067 1 10.9
2020-Jan-27 12:45 056 1 10.9
2020-Jan-27 12:30 050 1 10.8
2020-Jan-27 12:15 063 1 10.8
2020-Jan-27 12:00 063 0 10.8
2020-Jan-27 11:45 053 0 10.8
2020-Jan-27 11:30 073 0 10.8
2020-Jan-27 11:15 051 0 10.8
2020-Jan-27 11:00 035 0 10.7
2020-Jan-27 10:45 022 0 10.7
2020-Jan-27 10:30 018 1 10.6
2020-Jan-27 10:15 011 0 10.4
2020-Jan-27 10:00 015 0 10.4
2020-Jan-27 09:45 005 0 10.4
2020-Jan-27 09:30 320 0 10.5
2020-Jan-27 09:15 291 0 10.5
2020-Jan-27 09:00 263 0 10.5
2020-Jan-27 08:45 360 0 10.5
2020-Jan-27 08:30 355 0 10.6
2020-Jan-27 08:15 002 0 10.9
2020-Jan-27 08:00 140 1 11.0
2020-Jan-27 07:45 090 0 10.9
2020-Jan-27 07:30 036 0 10.8
2020-Jan-27 07:15 025 1 10.8
2020-Jan-27 07:00 114 1 10.9
2020-Jan-27 06:45 005 0 11.0
2020-Jan-27 06:30 067 0 11.1
2020-Jan-27 06:15 072 0 11.2
2020-Jan-27 06:00 332 1 10.9
2020-Jan-27 05:45 303 0 11.0
2020-Jan-27 05:30 257 0 10.9
2020-Jan-27 05:15 186 0 10.9
2020-Jan-27 05:00 169 0 11.1
2020-Jan-27 04:45 004 0 11.1
2020-Jan-27 04:30 022 0 11.1
2020-Jan-27 04:15 081 0 11.2
2020-Jan-27 04:00 129 0 11.4
2020-Jan-27 03:45 076 0 11.5
2020-Jan-27 03:30 189 0 11.7
2020-Jan-27 03:15 230 0 11.7
2020-Jan-27 03:00 267 0 11.8
2020-Jan-27 02:45 266 0 11.7
2020-Jan-27 02:30 258 0 11.9
2020-Jan-27 02:15 195 0 11.8
2020-Jan-27 02:00 018 0 11.9
2020-Jan-27 01:45 173 0 12.1
2020-Jan-27 01:30 299 0 12.3
2020-Jan-27 01:15 255 0 12.6
2020-Jan-27 01:00 244 0 12.7
2020-Jan-27 00:45 156 0 12.9
2020-Jan-27 00:30 295 0 13.0
2020-Jan-27 00:15 055 0 13.2
2020-Jan-27 00:00 351 0 13.2
2020-Jan-26 23:45 323 0 13.4
2020-Jan-26 23:30 353 0 14.0
2020-Jan-26 23:15 015 0 14.4
2020-Jan-26 23:00 243 0 15.0